QPF
0.22 0.21 0.20 0.18 0.17 0.16 0.14 0.12 0.09 0.08 0.06 0.05 0.04 0.05 0.06 0.06 0.05 0.07 0.11 0.09 0.05 0.03 0.04 0.06 0.07 0.08 0.08 0.09 0.09 0.10 0.09 0.08 0.09 0.07 0.06 0.05 0.03 0.03 0.03 0.03 0.03 0.04 0.03
0.25 0.23 0.19 0.17 0.16 0.17 0.14 0.11 0.10 0.10 0.09 0.09 0.07 0.06 0.06 0.08 0.09 0.08 0.11 0.14 0.09 0.04 0.05 0.06 0.08 0.09 0.10 0.10 0.11 0.11 0.11 0.11 0.10 0.09 0.08 0.06 0.06 0.04 0.03 0.03 0.04 0.04 0.03
0.24 0.20 0.17 0.14 0.12 0.11 0.11 0.09 0.09 0.10 0.10 0.10 0.10 0.10 0.10 0.09 0.07 0.07 0.08 0.10 0.09 0.07 0.06 0.05 0.06 0.07 0.09 0.10 0.12 0.14 0.15 0.15 0.13 0.11 0.10 0.09 0.08 0.07 0.06 0.05 0.04 0.05 0.05
0.22 0.18 0.17 0.14 0.11 0.09 0.10 0.10 0.11 0.10 0.10 0.10 0.11 0.09 0.08 0.07 0.05 0.05 0.05 0.06 0.07 0.08 0.07 0.05 0.05 0.05 0.08 0.10 0.13 0.16 0.17 0.17 0.14 0.13 0.12 0.12 0.11 0.10 0.08 0.06 0.05 0.05 0.05
0.15 0.16 0.14 0.10 0.10 0.10 0.09 0.08 0.10 0.08 0.08 0.09 0.09 0.08 0.06 0.06 0.05 0.04 0.03 0.04 0.05 0.05 0.06 0.06 0.05 0.05 0.08 0.11 0.14 0.18 0.18 0.17 0.18 0.16 0.15 0.14 0.13 0.12 0.11 0.10 0.09 0.07 0.06
0.12 0.13 0.12 0.08 0.08 0.08 0.08 0.09 0.11 0.09 0.09 0.10 0.08 0.07 0.06 0.05 0.04 0.03 0.03 0.03 0.03 0.04 0.06 0.08 0.10 0.09 0.10 0.12 0.15 0.16 0.16 0.18 0.18 0.15 0.16 0.16 0.15 0.14 0.13 0.11 0.11 0.10 0.09
0.10 0.09 0.07 0.06 0.06 0.07 0.07 0.07 0.08 0.10 0.11 0.11 0.09 0.10 0.09 0.05 0.03 0.04 0.04 0.03 0.03 0.04 0.06 0.08 0.09 0.09 0.09 0.10 0.11 0.12 0.15 0.16 0.15 0.14 0.13 0.16 0.18 0.18 0.18 0.16 0.14 0.14 0.13
0.08 0.07 0.06 0.05 0.06 0.08 0.07 0.07 0.08 0.09 0.10 0.10 0.10 0.10 0.09 0.07 0.06 0.04 0.04 0.03 0.04 0.04 0.04 0.05 0.07 0.07 0.07 0.08 0.09 0.11 0.13 0.16 0.16 0.13 0.11 0.11 0.14 0.18 0.22 0.22 0.20 0.19 0.18
0.05 0.04 0.04 0.04 0.05 0.05 0.05 0.04 0.05 0.06 0.08 0.09 0.09 0.10 0.10 0.10 0.07 0.05 0.03 0.03 0.03 0.04 0.05 0.06 0.07 0.07 0.07 0.07 0.08 0.09 0.12 0.14 0.15 0.16 0.15 0.13 0.13 0.16 0.20 0.22 0.23 0.22 0.21
0.03 0.02 0.03 0.03 0.04 0.04 0.04 0.04 0.05 0.06 0.06 0.07 0.08 0.09 0.10 0.10 0.10 0.07 0.04 0.04 0.04 0.04 0.04 0.05 0.05 0.05 0.06 0.07 0.07 0.07 0.09 0.10 0.11 0.14 0.17 0.18 0.18 0.19 0.20 0.21 0.22 0.24 0.26
0.03 0.03 0.03 0.03 0.03 0.04 0.04 0.04 0.05 0.05 0.05 0.06 0.07 0.07 0.07 0.08 0.09 0.08 0.06 0.05 0.04 0.04 0.05 0.05 0.05 0.05 0.07 0.08 0.09 0.09 0.10 0.10 0.10 0.11 0.15 0.18 0.20 0.21 0.23 0.24 0.26 0.27 0.28
0.06 0.02 0.02 0.02 0.03 0.03 0.03 0.03 0.03 0.03 0.04 0.04 0.05 0.05 0.05 0.05 0.06 0.07 0.06 0.05 0.04 0.04 0.05 0.06 0.07 0.07 0.06 0.07 0.09 0.11 0.12 0.13 0.12 0.12 0.14 0.17 0.20 0.22 0.24 0.25 0.27 0.30 0.33
0.07 0.02 0.01 0.01 0.02 0.02 0.02 0.02 0.02 0.02 0.02 0.03 0.03 0.03 0.03 0.04 0.05 0.05 0.06 0.04 0.03 0.03 0.04 0.04 0.06 0.06 0.05 0.05 0.06 0.08 0.09 0.11 0.12 0.12 0.12 0.13 0.15 0.18 0.21 0.22 0.25 0.30 0.33
0.06 0.04 0.02 0.01 0.01 0.01 0.01 0.01 0.02 0.02 0.02 0.02 0.02 0.03 0.03 0.03 0.04 0.04 0.04 0.04 0.03 0.03 0.03 0.03 0.05 0.05 0.05 0.04 0.05 0.05 0.06 0.07 0.07 0.09 0.10 0.11 0.13 0.14 0.17 0.18 0.19 0.20 0.20
0.04 0.03 0.02 0.01 0.01 0.01 0.01 0.01 0.02 0.02 0.02 0.02 0.02 0.02 0.02 0.02 0.04 0.04 0.04 0.04 0.04 0.04 0.04 0.04 0.04 0.04 0.04 0.03 0.04 0.04 0.04 0.05 0.05 0.06 0.07 0.08 0.09 0.10 0.10 0.12 0.13 0.14 0.13
0.02 0.01 0.01 0.01 0.01 0.01 0.01 0.01 0.02 0.02 0.02 0.03 0.02 0.02 0.02 0.02 0.02 0.02 0.03 0.03 0.03 0.03 0.04 0.04 0.03 0.03 0.03 0.03 0.04 0.03 0.03 0.04 0.04 0.04 0.05 0.07 0.09 0.11 0.11 0.10 0.10 0.10 0.09
0.01 0.01 0.01 0.01 0.01 0.01 0.02 0.02 0.02 0.02 0.03 0.02 0.02 0.02 0.02 0.02 0.02 0.02 0.02 0.03 0.03 0.03 0.03 0.03 0.03 0.04 0.04 0.03 0.04 0.05 0.06 0.04 0.04 0.04 0.04 0.04 0.06 0.08 0.10 0.09 0.08 0.07 0.07
0.01 0.01 0.01 0.01 0.01 0.01 0.02 0.02 0.02 0.02 0.02 0.02 0.02 0.02 0.02 0.02 0.02 0.02 0.03 0.03 0.03 0.03 0.03 0.03 0.03 0.03 0.04 0.03 0.04 0.05 0.05 0.05 0.04 0.04 0.04 0.03 0.03 0.04 0.05 0.06 0.07 0.06 0.05
0.02 0.01 0.01 0.01 0.01 0.01 0.01 0.01 0.01 0.02 0.02 0.02 0.02 0.02 0.02 0.02 0.02 0.02 0.03 0.03 0.04 0.04 0.04 0.04 0.04 0.03 0.04 0.04 0.04 0.04 0.05 0.05 0.05 0.05 0.03 0.02 0.02 0.03 0.04 0.05 0.04 0.03 0.03
0.01 0.01 0.01 0.01 0.02 0.01 0.00 0.01 0.01 0.02 0.02 0.03 0.02 0.01 0.01 0.01 0.01 0.01 0.02 0.04 0.04 0.05 0.05 0.05 0.04 0.04 0.04 0.04 0.04 0.04 0.04 0.04 0.04 0.03 0.03 0.02 0.02 0.02 0.02 0.02 0.02 0.02 0.03
0.01 0.01 0.02 0.02 0.02 0.01 0.00 0.01 0.02 0.03 0.04 0.03 0.02 0.01 0.00 0.00 0.01 0.01 0.02 0.03 0.03 0.05 0.06 0.05 0.05 0.04 0.04 0.04 0.04 0.03 0.03 0.04 0.03 0.02 0.02 0.01 0.01 0.01 0.01 0.01 0.02 0.02 0.03
0.01 0.01 0.01 0.02 0.01 0.00 0.01 0.01 0.01 0.02 0.03 0.03 0.02 0.02 0.01 0.00 0.01 0.01 0.02 0.02 0.03 0.05 0.06 0.06 0.05 0.05 0.05 0.03 0.03 0.02 0.03 0.03 0.02 0.01 0.01 0.01 0.01 0.01 0.01 0.01 0.01 0.01 0.02
0.02 0.02 0.02 0.02 0.02 0.01 0.01 0.01 0.01 0.02 0.03 0.02 0.02 0.02 0.02 0.01 0.02 0.03 0.04 0.04 0.03 0.03 0.03 0.04 0.05 0.05 0.05 0.04 0.04 0.04 0.03 0.03 0.02 0.01 0.01 0.01 0.01 0.01 0.01 0.00 0.00 0.01 0.01
0.03 0.02 0.03 0.03 0.04 0.02 0.01 0.01 0.01 0.03 0.04 0.02 0.01 0.02 0.03 0.02 0.02 0.04 0.06 0.05 0.04 0.03 0.03 0.03 0.03 0.03 0.03 0.04 0.04 0.04 0.02 0.02 0.01 0.01 0.01 0.01 0.01 0.01 0.00 0.00 0.00 0.00 0.00
0.04 0.02 0.02 0.03 0.03 0.02 0.02 0.02 0.03 0.06 0.05 0.03 0.02 0.02 0.03 0.02 0.03 0.03 0.05 0.07 0.07 0.06 0.04 0.03 0.03 0.04 0.04 0.03 0.02 0.03 0.02 0.02 0.02 0.01 0.01 0.01 0.01 0.01 0.01 0.00 0.00 0.00 0.00
0.04 0.02 0.02 0.04 0.04 0.02 0.02 0.03 0.04 0.06 0.06 0.06 0.05 0.04 0.03 0.03 0.03 0.04 0.06 0.07 0.07 0.07 0.05 0.04 0.04 0.04 0.03 0.02 0.01 0.02 0.02 0.01 0.01 0.01 0.01 0.01 0.01 0.01 0.01 0.01 0.00 0.00 0.00
MSLP
1016.67 1016.59 1016.46 1016.35 1016.29 1016.32 1016.42 1016.58 1016.75 1016.89 1016.98 1017.01 1016.98 1016.94 1016.93 1016.98 1017.13 1017.39 1017.76 1018.21 1018.70 1019.20 1019.66 1020.05 1020.38 1020.64 1020.84 1021.00 1021.13 1021.26 1021.40 1021.55 1021.71 1021.88 1022.04 1022.18 1022.30 1022.38 1022.42 1022.44 1022.43 1022.44 1022.47
1016.69 1016.57 1016.41 1016.25 1016.14 1016.11 1016.16 1016.27 1016.43 1016.58 1016.71 1016.80 1016.86 1016.89 1016.94 1017.01 1017.15 1017.37 1017.66 1018.02 1018.43 1018.86 1019.28 1019.69 1020.05 1020.37 1020.63 1020.85 1021.04 1021.21 1021.37 1021.53 1021.71 1021.90 1022.10 1022.30 1022.48 1022.63 1022.74 1022.82 1022.87 1022.92 1022.98
1016.70 1016.56 1016.38 1016.19 1016.06 1015.99 1016.00 1016.10 1016.24 1016.41 1016.59 1016.76 1016.89 1017.01 1017.11 1017.21 1017.33 1017.48 1017.68 1017.94 1018.24 1018.58 1018.96 1019.34 1019.72 1020.07 1020.40 1020.68 1020.92 1021.13 1021.33 1021.52 1021.72 1021.95 1022.19 1022.45 1022.70 1022.93 1023.13 1023.29 1023.41 1023.51 1023.61
1016.68 1016.53 1016.35 1016.17 1016.03 1015.96 1015.96 1016.04 1016.19 1016.38 1016.60 1016.83 1017.03 1017.22 1017.37 1017.49 1017.60 1017.70 1017.81 1017.96 1018.15 1018.40 1018.70 1019.04 1019.41 1019.79 1020.16 1020.49 1020.78 1021.04 1021.26 1021.49 1021.72 1021.98 1022.27 1022.59 1022.91 1023.23 1023.52 1023.77 1023.97 1024.13 1024.27
1016.62 1016.49 1016.33 1016.18 1016.06 1016.00 1016.01 1016.09 1016.23 1016.44 1016.68 1016.94 1017.20 1017.44 1017.63 1017.78 1017.88 1017.94 1017.99 1018.04 1018.14 1018.29 1018.51 1018.81 1019.16 1019.54 1019.92 1020.29 1020.62 1020.91 1021.17 1021.42 1021.68 1021.97 1022.30 1022.68 1023.07 1023.47 1023.85 1024.18 1024.46 1024.68 1024.86
1016.54 1016.43 1016.31 1016.21 1016.13 1016.09 1016.11 1016.19 1016.32 1016.51 1016.75 1017.02 1017.31 1017.58 1017.81 1017.98 1018.09 1018.13 1018.14 1018.14 1018.16 1018.23 1018.39 1018.63 1018.94 1019.31 1019.70 1020.09 1020.44 1020.76 1021.04 1021.32 1021.60 1021.92 1022.28 1022.70 1023.15 1023.61 1024.05 1024.46 1024.80 1025.08 1025.30
1016.46 1016.38 1016.31 1016.26 1016.23 1016.22 1016.24 1016.30 1016.40 1016.56 1016.76 1017.02 1017.29 1017.57 1017.83 1018.03 1018.16 1018.21 1018.21 1018.18 1018.16 1018.19 1018.29 1018.48 1018.76 1019.11 1019.49 1019.88 1020.25 1020.59 1020.90 1021.19 1021.50 1021.83 1022.22 1022.66 1023.13 1023.63 1024.12 1024.57 1024.96 1025.28 1025.53
1016.43 1016.38 1016.35 1016.34 1016.35 1016.36 1016.37 1016.40 1016.46 1016.55 1016.70 1016.90 1017.14 1017.41 1017.68 1017.90 1018.06 1018.15 1018.17 1018.14 1018.11 1018.11 1018.18 1018.33 1018.58 1018.90 1019.27 1019.67 1020.05 1020.41 1020.74 1021.06 1021.39 1021.74 1022.13 1022.57 1023.06 1023.56 1024.07 1024.53 1024.95 1025.29 1025.58
1016.50 1016.45 1016.45 1016.47 1016.49 1016.51 1016.50 1016.49 1016.47 1016.49 1016.56 1016.69 1016.89 1017.14 1017.40 1017.64 1017.83 1017.96 1018.01 1018.01 1017.99 1017.98 1018.03 1018.16 1018.38 1018.68 1019.05 1019.44 1019.85 1020.24 1020.60 1020.95 1021.30 1021.66 1022.06 1022.49 1022.96 1023.45 1023.93 1024.39 1024.81 1025.16 1025.46
1016.67 1016.62 1016.62 1016.64 1016.66 1016.66 1016.62 1016.56 1016.48 1016.42 1016.41 1016.47 1016.61 1016.81 1017.06 1017.31 1017.54 1017.70 1017.79 1017.82 1017.82 1017.81 1017.85 1017.96 1018.16 1018.44 1018.81 1019.22 1019.65 1020.07 1020.49 1020.88 1021.26 1021.64 1022.04 1022.45 1022.89 1023.34 1023.79 1024.22 1024.61 1024.96 1025.26
1016.94 1016.87 1016.84 1016.85 1016.85 1016.82 1016.75 1016.63 1016.49 1016.37 1016.28 1016.28 1016.37 1016.53 1016.76 1017.02 1017.26 1017.44 1017.56 1017.61 1017.62 1017.62 1017.65 1017.74 1017.92 1018.19 1018.56 1018.99 1019.45 1019.93 1020.40 1020.85 1021.27 1021.68 1022.09 1022.49 1022.90 1023.30 1023.70 1024.09 1024.45 1024.78 1025.07
1017.28 1017.17 1017.11 1017.08 1017.04 1016.98 1016.87 1016.72 1016.53 1016.36 1016.23 1016.18 1016.22 1016.36 1016.57 1016.81 1017.05 1017.25 1017.38 1017.44 1017.45 1017.44 1017.45 1017.52 1017.68 1017.95 1018.32 1018.77 1019.27 1019.81 1020.34 1020.86 1021.34 1021.79 1022.22 1022.61 1023.00 1023.36 1023.71 1024.05 1024.37 1024.67 1024.95
1017.63 1017.49 1017.38 1017.30 1017.23 1017.13 1016.99 1016.81 1016.61 1016.41 1016.26 1016.19 1016.20 1016.32 1016.50 1016.73 1016.95 1017.14 1017.26 1017.32 1017.31 1017.29 1017.28 1017.32 1017.47 1017.72 1018.09 1018.57 1019.12 1019.71 1020.32 1020.91 1021.46 1021.96 1022.41 1022.82 1023.19 1023.53 1023.84 1024.13 1024.41 1024.68 1024.94
1017.96 1017.78 1017.63 1017.51 1017.39 1017.26 1017.10 1016.91 1016.70 1016.51 1016.36 1016.28 1016.28 1016.38 1016.54 1016.74 1016.94 1017.11 1017.20 1017.24 1017.21 1017.16 1017.13 1017.16 1017.28 1017.53 1017.91 1018.41 1019.00 1019.65 1020.32 1020.99 1021.61 1022.17 1022.66 1023.09 1023.46 1023.78 1024.06 1024.32 1024.57 1024.81 1025.05
1018.23 1018.03 1017.85 1017.69 1017.54 1017.38 1017.21 1017.01 1016.81 1016.63 1016.49 1016.41 1016.41 1016.49 1016.63 1016.79 1016.96 1017.09 1017.15 1017.16 1017.11 1017.04 1016.99 1017.01 1017.13 1017.38 1017.77 1018.29 1018.92 1019.62 1020.36 1021.09 1021.78 1022.40 1022.94 1023.40 1023.78 1024.09 1024.36 1024.59 1024.80 1025.01 1025.22
1018.45 1018.24 1018.04 1017.85 1017.68 1017.50 1017.31 1017.12 1016.92 1016.75 1016.62 1016.54 1016.53 1016.58 1016.68 1016.80 1016.92 1017.00 1017.03 1017.01 1016.95 1016.88 1016.83 1016.85 1016.99 1017.26 1017.67 1018.23 1018.89 1019.65 1020.44 1021.23 1021.97 1022.64 1023.22 1023.71 1024.10 1024.42 1024.67 1024.88 1025.06 1025.24 1025.41
1018.63 1018.43 1018.23 1018.03 1017.84 1017.64 1017.44 1017.24 1017.04 1016.87 1016.72 1016.63 1016.59 1016.59 1016.63 1016.69 1016.75 1016.79 1016.78 1016.74 1016.68 1016.62 1016.60 1016.66 1016.84 1017.15 1017.61 1018.21 1018.92 1019.72 1020.56 1021.39 1022.17 1022.88 1023.49 1023.99 1024.39 1024.69 1024.93 1025.11 1025.26 1025.40 1025.53
1018.83 1018.66 1018.46 1018.26 1018.05 1017.83 1017.61 1017.39 1017.18 1016.98 1016.81 1016.67 1016.56 1016.50 1016.46 1016.45 1016.43 1016.40 1016.36 1016.31 1016.26 1016.25 1016.29 1016.42 1016.67 1017.05 1017.58 1018.24 1019.01 1019.85 1020.72 1021.58 1022.38 1023.10 1023.72 1024.22 1024.60 1024.88 1025.08 1025.22 1025.33 1025.42 1025.51
1019.06 1018.93 1018.76 1018.56 1018.34 1018.10 1017.86 1017.61 1017.36 1017.12 1016.89 1016.68 1016.49 1016.33 1016.19 1016.07 1015.97 1015.88 1015.80 1015.74 1015.73 1015.77 1015.89 1016.12 1016.47 1016.96 1017.57 1018.31 1019.13 1020.01 1020.91 1021.78 1022.59 1023.30 1023.89 1024.36 1024.71 1024.95 1025.09 1025.18 1025.22 1025.25 1025.28
1019.36 1019.26 1019.11 1018.92 1018.70 1018.45 1018.18 1017.89 1017.60 1017.30 1017.00 1016.70 1016.42 1016.14 1015.89 1015.66 1015.45 1015.28 1015.16 1015.11 1015.12 1015.23 1015.45 1015.79 1016.27 1016.87 1017.59 1018.41 1019.29 1020.21 1021.12 1021.99 1022.77 1023.44 1023.99 1024.40 1024.69 1024.86 1024.93 1024.94 1024.92 1024.88 1024.84
1019.71 1019.64 1019.51 1019.33 1019.11 1018.85 1018.56 1018.25 1017.91 1017.56 1017.19 1016.80 1016.41 1016.02 1015.64 1015.29 1014.98 1014.74 1014.57 1014.51 1014.56 1014.73 1015.05 1015.50 1016.10 1016.82 1017.64 1018.53 1019.47 1020.41 1021.32 1022.16 1022.90 1023.51 1023.99 1024.33 1024.53 1024.61 1024.60 1024.53 1024.42 1024.30 1024.20
1020.06 1020.02 1019.92 1019.75 1019.53 1019.27 1018.98 1018.65 1018.29 1017.90 1017.47 1017.01 1016.53 1016.03 1015.55 1015.09 1014.68 1014.36 1014.15 1014.07 1014.14 1014.37 1014.77 1015.33 1016.02 1016.84 1017.74 1018.70 1019.67 1020.61 1021.50 1022.29 1022.96 1023.49 1023.87 1024.12 1024.22 1024.21 1024.11 1023.95 1023.77 1023.58 1023.42
1020.40 1020.37 1020.28 1020.12 1019.92 1019.67 1019.39 1019.07 1018.71 1018.30 1017.85 1017.35 1016.81 1016.24 1015.68 1015.13 1014.65 1014.26 1014.00 1013.91 1013.99 1014.26 1014.71 1015.33 1016.10 1016.98 1017.93 1018.91 1019.87 1020.79 1021.62 1022.34 1022.91 1023.35 1023.63 1023.77 1023.79 1023.69 1023.51 1023.28 1023.02 1022.78 1022.57
1020.67 1020.65 1020.56 1020.43 1020.25 1020.03 1019.77 1019.48 1019.15 1018.76 1018.32 1017.82 1017.26 1016.67 1016.06 1015.46 1014.93 1014.50 1014.21 1014.09 1014.17 1014.45 1014.93 1015.57 1016.37 1017.26 1018.21 1019.16 1020.08 1020.93 1021.67 1022.29 1022.76 1023.08 1023.26 1023.31 1023.24 1023.08 1022.84 1022.56 1022.27 1021.99 1021.74
1020.89 1020.86 1020.78 1020.66 1020.50 1020.32 1020.10 1019.86 1019.58 1019.25 1018.85 1018.38 1017.85 1017.27 1016.66 1016.06 1015.51 1015.06 1014.76 1014.63 1014.69 1014.97 1015.43 1016.07 1016.83 1017.69 1018.58 1019.46 1020.29 1021.03 1021.65 1022.14 1022.50 1022.71 1022.80 1022.77 1022.64 1022.43 1022.17 1021.88 1021.57 1021.28 1021.03
1021.06 1021.03 1020.95 1020.84 1020.71 1020.56 1020.40 1020.21 1019.99 1019.73 1019.39 1018.99 1018.52 1017.98 1017.41 1016.84 1016.31 1015.88 1015.58 1015.44 1015.50 1015.74 1016.17 1016.75 1017.45 1018.22 1019.01 1019.78 1020.47 1021.07 1021.56 1021.91 1022.14 1022.26 1022.26 1022.18 1022.02 1021.80 1021.55 1021.27 1020.99 1020.72 1020.46
Thickness
5724 5724 5723 5723 5724 5725 5725 5724 5726 5727 5728 5730 5730 5730 5730 5730 5730 5728 5726 5724 5723 5722 5721 5720 5718 5717 5715 5714 5713 5712 5711 5710 5708 5707 5705 5704 5702 5701 5700 5699 5698 5697 5696
5717 5718 5719 5719 5719 5720 5720 5721 5723 5723 5725 5724 5725 5725 5725 5725 5724 5724 5722 5721 5719 5719 5718 5716 5715 5714 5713 5712 5712 5711 5710 5708 5707 5706 5704 5702 5700 5699 5697 5696 5695 5694 5693
5711 5713 5713 5715 5715 5716 5717 5718 5719 5719 5720 5720 5719 5719 5719 5719 5719 5719 5718 5716 5715 5714 5713 5713 5712 5711 5711 5710 5709 5708 5708 5706 5705 5704 5702 5700 5698 5696 5695 5693 5692 5691 5689
5705 5706 5708 5710 5710 5712 5713 5713 5713 5712 5712 5713 5713 5714 5714 5713 5713 5713 5713 5711 5711 5710 5709 5709 5708 5707 5707 5706 5706 5705 5704 5703 5702 5701 5699 5698 5696 5693 5692 5690 5688 5687 5686
5700 5701 5702 5703 5705 5706 5707 5707 5707 5706 5705 5706 5707 5708 5708 5708 5708 5708 5707 5705 5705 5704 5704 5704 5703 5703 5702 5702 5701 5701 5700 5699 5698 5697 5696 5694 5693 5691 5689 5687 5685 5683 5682
5694 5695 5697 5698 5699 5700 5700 5700 5699 5701 5701 5701 5702 5702 5703 5703 5703 5702 5700 5699 5699 5698 5698 5697 5697 5696 5696 5696 5695 5695 5695 5695 5694 5693 5692 5691 5689 5687 5685 5684 5682 5680 5679
5687 5689 5691 5692 5692 5692 5693 5694 5694 5695 5695 5696 5694 5693 5694 5696 5696 5695 5694 5692 5691 5691 5691 5690 5689 5689 5689 5689 5689 5690 5689 5689 5689 5689 5688 5686 5685 5684 5682 5680 5679 5677 5676
5680 5682 5682 5684 5684 5685 5686 5687 5687 5688 5689 5691 5687 5685 5683 5684 5685 5687 5686 5684 5683 5683 5682 5681 5681 5681 5681 5681 5681 5682 5683 5683 5683 5683 5683 5682 5681 5680 5678 5676 5675 5673 5671
5672 5673 5674 5675 5677 5678 5679 5680 5681 5680 5680 5683 5683 5679 5675 5673 5674 5675 5676 5675 5674 5673 5672 5672 5672 5672 5672 5672 5673 5674 5675 5676 5677 5677 5677 5677 5676 5675 5673 5672 5670 5668 5666
5665 5665 5667 5668 5669 5670 5671 5672 5673 5673 5674 5673 5675 5676 5674 5672 5667 5663 5664 5664 5664 5663 5662 5662 5662 5662 5662 5662 5663 5664 5665 5667 5669 5669 5670 5670 5670 5668 5667 5666 5664 5662 5660
5658 5659 5660 5661 5661 5662 5663 5664 5664 5665 5666 5666 5666 5667 5667 5667 5665 5659 5655 5654 5654 5653 5653 5653 5652 5652 5652 5652 5653 5654 5655 5657 5659 5660 5662 5662 5662 5661 5660 5658 5657 5655 5653
5651 5652 5654 5654 5654 5655 5655 5656 5657 5658 5658 5659 5659 5659 5659 5657 5656 5655 5651 5648 5646 5644 5644 5644 5644 5643 5643 5643 5643 5644 5645 5646 5648 5649 5651 5652 5652 5652 5651 5650 5649 5647 5645
5643 5643 5645 5646 5646 5647 5648 5649 5649 5650 5651 5651 5651 5652 5652 5652 5652 5650 5647 5643 5640 5637 5636 5636 5636 5635 5635 5634 5634 5634 5635 5636 5637 5639 5641 5642 5643 5642 5641 5640 5639 5638 5635
5635 5635 5636 5637 5638 5639 5640 5641 5641 5642 5643 5643 5644 5644 5645 5645 5645 5644 5642 5638 5634 5630 5628 5627 5627 5627 5627 5626 5625 5626 5626 5627 5628 5629 5630 5630 5631 5631 5630 5630 5629 5627 5624
5628 5627 5628 5629 5630 5631 5632 5632 5632 5633 5634 5634 5635 5636 5636 5637 5637 5637 5637 5635 5631 5625 5621 5619 5619 5618 5618 5618 5618 5618 5618 5618 5619 5619 5619 5620 5620 5620 5619 5618 5617 5616 5613
5619 5620 5620 5621 5622 5622 5623 5624 5625 5625 5626 5626 5626 5627 5627 5628 5628 5629 5629 5628 5627 5624 5616 5613 5612 5611 5610 5611 5610 5610 5610 5610 5610 5609 5610 5610 5610 5610 5609 5607 5606 5605 5603
5612 5612 5612 5613 5613 5613 5614 5615 5616 5616 5616 5617 5618 5618 5617 5618 5619 5620 5621 5620 5619 5617 5611 5607 5605 5604 5604 5603 5603 5603 5603 5602 5602 5601 5601 5601 5601 5600 5599 5597 5597 5596 5594
5604 5604 5604 5604 5604 5604 5605 5606 5606 5607 5607 5607 5607 5608 5608 5609 5610 5611 5612 5611 5610 5610 5606 5602 5599 5597 5597 5597 5597 5596 5596 5595 5594 5593 5593 5592 5593 5592 5591 5589 5588 5588 5587
5596 5596 5596 5595 5595 5595 5595 5596 5597 5597 5597 5597 5598 5598 5599 5600 5600 5602 5602 5602 5602 5602 5600 5597 5594 5592 5592 5591 5591 5590 5590 5589 5588 5587 5586 5585 5585 5584 5584 5583 5581 5581 5580
5588 5587 5587 5587 5586 5586 5585 5586 5587 5588 5588 5589 5589 5590 5590 5591 5592 5593 5594 5594 5594 5593 5592 5591 5588 5587 5586 5586 5585 5584 5583 5583 5583 5582 5581 5580 5579 5579 5578 5577 5577 5576 5576
5580 5579 5579 5578 5578 5577 5575 5575 5577 5579 5579 5580 5581 5582 5582 5582 5584 5585 5586 5586 5586 5586 5586 5585 5583 5582 5581 5580 5580 5580 5579 5578 5578 5578 5577 5577 5576 5574 5573 5573 5573 5573 5572
5571 5571 5570 5570 5568 5566 5565 5567 5568 5571 5572 5573 5574 5575 5576 5576 5576 5577 5578 5579 5580 5580 5580 5580 5579 5578 5577 5577 5577 5577 5576 5574 5573 5575 5574 5573 5574 5573 5572 5571 5571 5571 5569
5563 5562 5562 5561 5559 5558 5558 5560 5562 5564 5566 5566 5567 5568 5570 5569 5570 5571 5573 5574 5574 5575 5576 5576 5575 5574 5573 5573 5573 5573 5572 5572 5572 5573 5573 5571 5572 5571 5571 5571 5571 5569 5568
5556 5555 5555 5554 5553 5551 5552 5554 5556 5559 5560 5561 5561 5561 5562 5562 5563 5565 5568 5568 5568 5569 5570 5571 5571 5570 5570 5570 5570 5571 5571 5571 5572 5573 5573 5570 5571 5570 5571 5571 5570 5569 5567
5550 5550 5550 5549 5548 5547 5547 5549 5551 5554 5555 5555 5555 5555 5556 5557 5558 5560 5562 5563 5563 5562 5563 5565 5565 5566 5566 5567 5567 5568 5568 5568 5568 5570 5571 5570 5570 5570 5571 5571 5571 5569 5567
5547 5547 5546 5546 5545 5544 5544 5546 5548 5551 5551 5551 5551 5551 5551 5552 5554 5556 5557 5558 5558 5558 5560 5561 5561 5562 5564 5565 5566 5566 5567 5566 5567 5567 5570 5569 5569 5569 5568 5571 5571 5569 5567